Weather History for Whitefield, NH

Change the Weather History Date:

Tuesday, November 20, 2012

  Actual Average Record
Temperature  
Mean Temperature 30 °F -  
Max Temperature 46 °F 39 °F 59 °F (1999)
Min Temperature 14 °F 21 °F 7 °F (2008)
Degree Days  
Heating Degree Days 35    
Moisture  
Dew Point 20 °F    
Average Humidity 73    
Maximum Humidity 89    
Minimum Humidity 42    
Precipitation  
Precipitation 0.00 in - - ()
Sea Level Pressure  
Sea Level Pressure 30.23 in    
Wind  
Wind Speed 0 mph (North)    
Max Wind Speed 0 mph    
Max Gust Speed -    
Visibility 10 miles    
Events      
Averages and records for this station are not official NWS values.
T = Trace of Precipitation, MM = Missing Value Source: NWS Daily Summary

Daily Weather History Graph

Daily Weather History Graph

Search for Another Location

Airport:

Trip Planner

Search our weather history database for the weather conditions in past years. The results will help you decide how hot, cold, wet, or windy it might be!

Date:

Astronomy

Nov. 20, 2012 Rise Set
Actual Time 6:49 AM EST 4:14 PM EST
Civil Twilight 6:17 AM EST 4:46 PM EST
Nautical Twilight 5:41 AM EST 5:21 PM EST
Astronomical Twilight 5:07 AM EST 5:56 PM EST
Moon 12:14 PM EST (11/20) 11:52 PM EST (11/20)
Length of Visible Light 10h 28m
Length of Day
9h 24m
Waxing Crescent, 51% of the Moon is Illuminated
Nov 20
Waxing Crescent
Nov 28
Full
Dec 6
Last Quarter
Dec 13
New
Dec 20
First Quarter

Hourly Weather History & Observations

Time (EST) Temp. Dew Point Humidity Pressure Visibility Wind Dir Wind Speed Gust Speed Precip Events Conditions
12:52 AM 18.0 °F 12.9 °F 81% 30.30 in 10.0 mi Calm Calm - N/A   Clear
1:52 AM 17.1 °F 12.9 °F 84% 30.29 in 10.0 mi Calm Calm - N/A   Clear
3:52 AM 16.0 °F 12.0 °F 84% 30.27 in 10.0 mi Calm Calm - N/A   Clear
4:52 AM 15.1 °F 10.9 °F 84% 30.28 in 10.0 mi Calm Calm - N/A   Clear
5:52 AM 15.1 °F 10.0 °F 80% 30.28 in 10.0 mi Calm Calm - N/A   Clear
6:52 AM 14.0 °F 10.0 °F 84% 30.27 in 10.0 mi Calm Calm - N/A   Clear
7:52 AM 16.0 °F 12.9 °F 88% 30.29 in 10.0 mi Calm Calm - N/A   Clear
8:52 AM 25.0 °F 19.9 °F 81% 30.27 in 10.0 mi Calm Calm - N/A   Clear
9:52 AM 30.9 °F 24.1 °F 76% 30.26 in 10.0 mi Calm Calm - N/A   Clear
10:52 AM 37.0 °F 25.0 °F 62% 30.23 in 10.0 mi Calm Calm - N/A   Clear
11:52 AM 41.0 °F 24.1 °F 51% 30.20 in 10.0 mi Calm Calm - N/A   Clear
12:52 PM 44.1 °F 23.0 °F 43% 30.19 in 10.0 mi Calm Calm - N/A   Clear
1:52 PM 45.0 °F 24.1 °F 44% 30.17 in 10.0 mi Calm Calm - N/A   Clear
2:52 PM 46.0 °F 24.1 °F 42% 30.16 in 10.0 mi Calm Calm - N/A   Clear
3:52 PM 36.0 °F 24.1 °F 62% 30.18 in 10.0 mi Calm Calm - N/A   Mostly Cloudy
4:52 PM 30.9 °F 23.0 °F 72% 30.19 in 10.0 mi Calm Calm - N/A   Clear
6:52 PM 28.0 °F 21.9 °F 78% 30.22 in 10.0 mi Calm Calm - N/A   Partly Cloudy
7:52 PM 28.0 °F 21.9 °F 78% 30.22 in 10.0 mi Calm Calm - N/A   Overcast
8:52 PM 28.9 °F 23.0 °F 78% 30.21 in 10.0 mi Calm Calm - N/A   Mostly Cloudy
9:52 PM 30.0 °F 24.1 °F 79% 30.21 in 10.0 mi Calm Calm - N/A   Overcast
10:52 PM 28.9 °F 24.1 °F 82% 30.21 in 10.0 mi Calm Calm - N/A   Overcast
11:52 PM 27.0 °F 24.1 °F 89% 30.20 in 10.0 mi Calm Calm - N/A   Clear